Regional Weather Roundup
Issued by NWS

Home | Current Version | Previous Version | Graphics & Text | Print | Product List | Glossary On
Versions: 1 2 3 4 5 6 7 8 9 10 11 12 13 14 15 16 17 18 19 20 21 22 23 24 25 26 27 28 29 30 31 32 33 34 35 36 37 38 39 40 41 42 43 44 45 46 47 48 49 50
000
ASUS43 KMPX 141601
RWRMN
WEATHER ROUNDUP FOR MINNESOTA
NATIONAL WEATHER SERVICE TWIN CITIES/CHANHASSEN MN
1000 AM CST SUN FEB 14 2016


NOTE: "FAIR" INDICATES FEW OR NO CLOUDS BELOW 12,000 FEET WITH NO
SIGNIFICANT WEATHER AND/OR OBSTRUCTIONS TO VISIBILITY. N/A MEANS
CURRENT SKY AND/OR WEATHER CONDITIONS ARE NOT AVAILABLE.

MNZ060>063-068>070-141700-
   Twin Cities Metro

CITY           SKY/WX    TMP DP  RH WIND       PRES   REMARKS
TWIN CITIES    LGT SNOW  14   7  73 SE12      30.04F WCI   0
ST PAUL        LGT SNOW  14   7  73 SE16      30.06F WCI  -2
CRYSTAL        LGT SNOW  15   7  70 SE12G23   30.02F WCI   2
BLAINE         FLURRIES  16   9  73 SE15G21   30.02F WCI   1
LAKEVILLE      LGT SNOW  12   9  85 SE13      30.02F WCI  -3
EDEN PRAIRIE   LGT SNOW  15   9  76 SE14      30.02S VSB 1   WCI   0
SOUTH ST PAUL  LGT SNOW  15   8  73 SE12      30.05F WCI   2
LAKE ELMO      FLURRIES  14   9  79 SE13      30.06F WCI   0
$$
MNZ001>005-007-008-013>017-022>024-027-028-141700-
   Northwest Minnesota

CITY           SKY/WX    TMP DP  RH WIND       PRES   REMARKS
BEMIDJI        LGT SNOW   8   4  82 S14G20    29.88F WCI  -8
HALLOCK        LGT SNOW  14  10  85 S22G28    29.79F VSB 3/4 WCI  -4
ROSEAU         LGT SNOW  12   9  85 S15       29.83F WCI  -4
WARROAD        LGT SNOW  10   7  85 S12       29.84F VSB 1   WCI  -4
THIEF RVR FALL CLOUDY    12   9  85 S22       29.83F WCI  -7
CROOKSTON      LGT SNOW  14  10  85 S22G29    29.84F WCI  -4
FOSSTON        LGT SNOW  10   7  85 S14G22    29.84F WCI  -5
DETROIT LAKES  LGT SNOW  12  10  92 S14       29.86F WCI  -3
MOORHEAD       MIX PCPN  12  10  92 S24       29.85F WCI  -8
PARK RAPIDS    LGT SNOW  11   5  77 SE17      29.88F WCI  -6
MAHNOMEN       CLOUDY    12   6  77 S15G21    29.85F WCI  -4
$$
MNZ006-009>011-018-025>026-141700-
   North Central Minnesota

CITY           SKY/WX    TMP DP  RH WIND       PRES   REMARKS
BAUDETTE       LGT SNOW  10   2  69 S13       29.87F WCI  -5
FLAG ISLAND    LGT SNOW   9   3  78 S21       29.85F WCI -11
INTL FALLS     CLOUDY     8  -6  52 VRB7      29.94F WCI  -3
WASKISH        CLOUDY    10   3  72 SE10G18   29.88F WCI  -3
LONGVILLE      LGT SNOW   9   3  78 SE9G18    29.94F WCI  -5
GRAND RAPIDS   CLOUDY     7  -2  66 S16       29.95F WCI -11
CRANE LAKE     CLOUDY     7 -11  43 SE8       30.01F WCI  -6
ORR            CLOUDY     7  -9  47 SE8       29.94F WCI  -6
COOK           CLOUDY     7  -8  51 SE12      29.97F WCI  -9
WALKER         LGT SNOW   7   2  80 SE7       29.92F WCI  -4
$$
MNZ012-019>021-037-141700-
   Northeast Minnesota

CITY           SKY/WX    TMP DP  RH WIND       PRES   REMARKS
DULUTH         FLURRIES   6  -6  57 SE9       30.01F WCI  -8
ELY            CLOUDY     9  -6  52 S10G16    29.99F WCI  -6
HIBBING        CLOUDY     5  -7  57 SE9       29.98F WCI  -9
EVELETH        FLURRIES  10  -4  52 S8        30.00F WCI  -1
DULUTH HARBOR  CLOUDY    10  -6  48 CALM      30.11F
TWO HARBORS    CLOUDY    10   0  61 CALM      30.05F
SILVER BAY     MOSUNNY    1  -6  71 CALM      30.06F
GRAND MARAIS     N/A     19   7  59 S14G20    30.14F WCI   6
G MARAIS ARPRT CLOUDY    12  -2  52 S8G20     30.02F WCI   1
$$
MNZ029>031-032-039>041-046>048-054>057-064-141700-
   West Central Minnesota

CITY           SKY/WX    TMP DP  RH WIND       PRES   REMARKS
FERGUS FALLS   LGT SNOW  12   9  85 S21       29.91F WCI  -6
WHEATON        LGT SNOW  16  12  86 SE18      29.90S WCI  -1
MORRIS         CLOUDY    16  10  79 SE21      29.88F WCI  -2
ALEXANDRIA     LGT SNOW  13   8  81 SE15      29.89F WCI  -3
ELBOW LAKE     LGT SNOW  13   9  86 SE20      29.88F WCI  -5
WADENA         CLOUDY    10   5  79 SE15      29.89F WCI  -6
GLENWOOD       LGT SNOW  12   9  85 SE18      29.91F WCI  -5
APPLETON       CLOUDY    16  10  79 SE10      29.90F WCI   3
BENSON         LGT SNOW  16  10  79 S12G18    29.91F WCI   3
ORTONVILLE     LGT SNOW  16  10  79 SE8       29.88S WCI   5
MADISON        CLOUDY    18  12  79 SE15      29.89F WCI   3
WILLMAR        LGT SNOW  16  12  86 SE16      29.94F WCI   0
$$
MNZ033>034-036-042>043-049>051-058-059-141700-
   Central Minnesota

CITY           SKY/WX    TMP DP  RH WIND       PRES   REMARKS
ST CLOUD       CLOUDY    13   5  70 SE18      29.98F WCI  -4
SAUK CENTRE    LGT SNOW  12   9  86 SE14      29.93F VSB 3/4 WCI  -3
PAYNESVILLE    FLURRIES  15  10  81 SE12G22   29.95F WCI   2
AITKIN         LGT SNOW  10   3  72 SE8       29.97F WCI  -1
PINE RIVER     LGT SNOW   9   3  78 SE9       29.97F WCI  -5
BRAINERD       LGT SNOW   9   3  77 S7        29.96F WCI  -2
STAPLES        LGT SNOW  10   5  79 SE12      29.92S WCI  -4
LONG PRAIRIE   LGT SNOW  10   7  85 SE9       29.93F WCI  -2
LITTLE FALLS   FLURRIES  12   5  73 SE8       29.97F WCI   1
LITCHFIELD     LGT SNOW  16  12  86 SE12      29.96F WCI   3
BUFFALO        FLURRIES  14   8  75 SE9       30.01F WCI   2
MAPLE LAKE     LGT SNOW  15  10  79 SE10G17   30.00S WCI   3
$$
MNZ037-044-045-052-053-141700-
   East Central Minnesota

CITY           SKY/WX    TMP DP  RH WIND       PRES   REMARKS
PRINCETON      CLOUDY    14   7  73 SE10      30.00F WCI   1
MORA           CLOUDY    12   3  67 SE7       30.04F WCI   2
CAMBRIDGE      CLOUDY    12   1  62 SE6       30.01F WCI   3
RUSH CITY      CLOUDY    11   2  67 SE12G18   30.04F WCI  -3
MOOSE LAKE     LGT SNOW  10   3  72 S5        30.02S WCI   2
HINCKLEY       CLOUDY    12   5  73 SE8       30.05S WCI   1
CLOQUET        LGT SNOW   7  -6  56 SE7       30.01F WCI  -5
MCGREGOR       CLOUDY    12   3  67 S8        30.00F WCI   1
$$
MNZ071>073-080-081-089-090-097-098-141700-
   Southwest Minnesota

CITY           SKY/WX    TMP DP  RH WIND       PRES   REMARKS
MONTEVIDEO     FLURRIES  16  12  86 S10       29.93S WCI   3
GRANITE FALLS  CLOUDY    18  13  84 SE15      29.94F WCI   3
CANBY          CLOUDY    20  14  78 SE12      29.89F WCI   8
MARSHALL       FLURRIES  17  10  74 S16       29.90F WCI   2
REDWOOD FALLS  CLOUDY    16  12  84 SE16      29.94F FOG     WCI   1
OLIVIA         LGT SNOW  18  14  86 SE15      29.94F WCI   3
PIPESTONE      FLURRIES  16   7  67 S14       29.83F WCI   1
WINDOM         CLOUDY    16  10  79 SE13      29.89F FOG     WCI   2
WORTHINGTON    CLOUDY    14   9  79 SE15      29.88S WCI  -1
JACKSON        MIX PCPN  18  10  73 SE13      29.90S WCI   4
TRACY          CLOUDY    17  12  82 S14G20    29.88F WCI   3
SLAYTON        LGT SNOW  14  12  91 SE15      29.87S WCI  -1
$$
MNZ065>067-074>077-082>085-091>093-141700-
   South Central Minnesota

CITY           SKY/WX    TMP DP  RH WIND       PRES   REMARKS
MANKATO        CLOUDY    16  10  79 SE21      29.98S WCI  -2
NEW ULM        LGT SNOW  16  10  79 SE12      29.96S WCI   3
ST JAMES       CLOUDY    18  14  86 SE16G22   29.95F WCI   3
FAIRMONT       CLOUDY    16  10  79 SE18      29.92F WCI  -1
GLENCOE        LGT SNOW  18  14  86 SE10      29.98F WCI   6
OWATONNA       LGT SNOW  14   9  79 SE18      29.99F WCI  -3
WASECA         LGT SNOW  18  12  79 SE18      30.00F WCI   2
ALBERT LEA     CLOUDY    16  10  79 SE18G29   29.97F FOG     WCI  -1
$$
MNZ078>079-086>088-094>096-141700-
   Southeast Minnesota

CITY           SKY/WX    TMP DP  RH WIND       PRES   REMARKS
ROCHESTER      LGT SNOW  11   8  88 SE18      30.02S FOG     WCI  -7
STANTON        LGT SNOW  16   9  74 SE12G18   30.01F WCI   2
DODGE CENTER   LGT SNOW  12   9  85 SE20      29.99F WCI  -6
WINONA         LGT SNOW  16   9  73 SE15      30.13F WCI   1
AUSTIN         LGT SNOW  14  10  85 SE13G20   30.00S WCI   0
PRESTON        LGT SNOW  12   7  82 SE17      30.04S WCI  -6
$$
ABBREVIATIONS USED IN REMARKS
   TC - TEMPERATURES IN CELSIUS
  WCI - WIND CHILL INDEX
   HX - HEAT INDEX
  VSB - VISIBILITY
$$



USA.gov is the U.S. government's official web portal to all federal, state and local government web resources and services.